sat.trackr.live / text

‹ back to catalog

STARLINK-3232

NORAD 50809 · 2022-001G

PAYLOAD ACTIVE UNKNOWN

§ Identity

Operator
Country
US
Launch date
2022-01-06
Launch site
AFETR
Launch vehicle
Mass (kg)
RCS (m²)

Purposes: comms

External: N2YO · Heavens-Above · Gunter

§ Orbital elements

Epoch: 2026-05-25T01:15:52.371072Z

Period
95.44 min
Inclination
53.2125°
Eccentricity
0.0001037
Mean motion
15.08838112 rev/d
Perigee alt
539.0 km
Apogee alt
540.5 km
Semi-major
6,917.9 km
B*
-8.9814e-6
RAAN
176.3140°
Arg perigee
92.7823°
Mean anomaly
267.3288°
Rev number
24,207

§ Raw data

STARLINK-32321 50809U 22001G   26145.05268948 -.00000431  00000+0 -89814-5 0  99912 50809  53.2125 176.3140 0001037  92.7823 267.3288 15.08838112242074

JSON: /api/v1/satellites/50809 · /tle

For live sub-satellite position, see the globe view (requires WebGL).

§ Visibility from observer

Set your observer location to see the next 7 days of passes ≥ 10°. The values pass through the URL so the page stays shareable.

No JS? Fill the form by hand. The geolocation button needs JavaScript.